[[{"header":{"parameterUnit":"m.s-1","parameterCategory":1,"la1":30.2991,"la2":30.254,"lo1":-89.0895,"lo2":-89.0444,"dy":0.0017,"dx":0.0017,"nx":28,"ny":28,"refTime":"2025-06-02T03:00:00:Z","depth":0,"parameterNumber":2,"parameterNumberName":"U-component_of_WINDS"},"data":[0,0,0,0,0,0,0,0,0,0,0,0,0,0,0,0,0,0,0,0,0,0,0,0,0,0,0,0,0,0,0,0,0,0,0,0,0,0,0,0,0,0,0,0,0,0,0,0,0,0,0,0,0,0,0,0,0,0,-2.8932,-2.8931,0,-2.8919,-2.8919,-2.8919,-2.8856,-2.8854,-2.8853,-2.8851,-2.884,-2.8841,-2.8842,0,0,0,0,0,0,0,0,0,0,0,0,0,-2.8903,-2.8904,-2.8932,-2.8931,-2.8931,-2.8919,-2.8919,-2.8919,-2.8856,-2.8854,-2.8852,-2.885,-2.8839,-2.884,-2.8842,0,0,0,0,0,0,0,0,0,0,0,0,0,-2.8905,-2.8904,-2.8932,-2.8898,-2.8895,-2.8919,-2.8919,-2.8919,-2.8856,-2.8854,-2.8852,-2.885,-2.8839,-2.884,-2.8842,-2.8897,0,0,-2.8847,-2.8848,0,0,0,0,0,0,0,0,-2.8905,-2.8907,-2.8903,-2.8901,-2.8897,-2.8887,-2.8904,-2.8912,-2.8857,-2.8871,-2.8851,-2.8848,-2.8857,-2.8857,-2.886,-2.8897,-2.8896,-2.8847,-2.8848,-2.8849,-2.8849,0,0,0,0,0,0,0,-2.8905,-2.8907,-2.8927,-2.8903,-2.89,-2.8885,-2.8883,-2.8906,-2.8877,-2.887,-2.8865,-2.8864,-2.8855,-2.8858,-2.8859,-2.8896,-2.8847,-2.8848,-2.8849,-2.885,-2.8979,-2.8981,0,0,0,0,0,0,-2.891,-2.8907,-2.8927,-2.8926,-2.8896,-2.8887,-2.8885,-2.8892,-2.8876,-2.8872,-2.8866,-2.8861,-2.8857,-2.8857,-2.8858,-2.8922,-2.8849,-2.885,-2.8851,-2.8976,-2.8979,-2.8982,0,0,0,0,0,0,-2.8909,-2.8912,-2.8927,-2.8915,-2.8916,-2.889,-2.8899,-2.8893,-2.8896,-2.8874,-2.8869,-2.8875,-2.8855,-2.8856,-2.8888,-2.8921,-2.8851,-2.8853,-2.8973,-2.8977,-2.8981,-2.9051,0,0,0,0,0,0,-2.8909,-2.8912,-2.8932,-2.8916,-2.8917,-2.8957,-2.8901,-2.8895,-2.8899,-2.8893,-2.888,-2.8876,-2.8853,-2.8886,-2.889,-2.8922,-2.8854,-2.897,-2.8975,-2.8979,-2.9045,-2.9056,-2.9066,0,0,0,0,0,-2.8908,-2.8952,-2.8934,-2.8936,-2.8942,-2.8959,-2.896,-2.8932,-2.8902,-2.8923,-2.8908,-2.8877,-2.8917,-2.889,-2.8894,-2.8927,-2.8968,-2.8974,-2.8979,-2.9041,-2.9054,-2.9065,0,0,0,0,0,0,-2.8973,-2.895,-2.8928,-2.8969,-2.8967,-2.8948,-2.8973,-2.8947,-2.8953,-2.8946,-2.8912,-2.891,-2.8947,-2.894,-2.891,-2.898,-2.8937,-2.8944,-2.8983,-2.8995,-2.9005,-2.9006,-2.8855,0,0,0,0,0,-2.8992,-2.9008,-2.8987,-2.9025,-2.9025,-2.9,-2.9006,-2.8985,-2.8981,-2.8979,-2.8967,-2.8965,-2.8977,-2.8986,-2.8996,-2.9044,-2.9041,-2.9069,-2.9079,-2.9088,-2.9094,-2.9119,-2.9132,-2.9,-2.9,-2.9,0,0,-2.9032,-2.9021,-2.9033,-2.9038,-2.9033,-2.9051,-2.8999,-2.9019,-2.9032,-2.8983,-2.9012,-2.9004,-2.8999,-2.904,-2.9057,-2.9035,-2.9129,-2.9095,-2.9102,-2.9103,-2.9126,-2.9139,-2.915,-2.9004,-2.9003,-2.9002,0,0,-2.9112,-2.9106,-2.9137,-2.9134,-2.9128,-2.9111,-2.9119,-2.9105,-2.9097,-2.9126,-2.909,-2.9105,-2.9127,-2.9125,-2.9127,-2.921,-2.9181,-2.9214,-2.9267,-2.9292,-2.9303,-2.9312,-2.9341,-2.9352,-2.922,-2.922,-2.922,0,-2.9162,-2.9187,-2.9157,-2.918,-2.9183,-2.914,-2.9172,-2.917,-2.9168,-2.9172,-2.9147,-2.9174,-2.9168,-2.9208,-2.9228,-2.9231,-2.9239,-2.9215,-2.9304,-2.9312,-2.932,-2.9348,-2.9359,-2.9224,-2.9224,-2.9223,-2.9223,0,-2.9249,-2.9267,-2.9293,-2.9292,-2.9298,-2.9326,-2.93,-2.9311,-2.929,-2.9276,-2.9307,-2.9298,-2.9306,-2.9314,-2.9294,-2.9352,-2.9338,-2.931,-2.9266,-2.9337,-2.9363,-2.9373,-2.923,-2.9229,-2.9227,-2.9226,0,0,-2.9369,-2.9352,-2.9362,-2.9361,-2.9352,-2.9366,-2.9392,-2.9399,-2.9409,-2.941,-2.9431,-2.9451,-2.9425,-2.9427,-2.9407,-2.9429,-2.9495,-2.9397,-2.9397,-2.9416,-2.9559,-2.9581,-2.9594,-2.9477,-2.9479,-2.948,-2.956,0,-2.9446,-2.9489,-2.9464,-2.9511,-2.9527,-2.9487,-2.951,-2.9507,-2.9496,-2.9508,-2.9495,-2.951,-2.9474,-2.9475,-2.9496,-2.9483,-2.9524,-2.9477,-2.9497,-2.9498,-2.9498,-2.9607,-2.9629,-2.9705,-2.9569,-2.9571,-2.9572,0,-2.9542,-2.9547,-2.9596,-2.9584,-2.959,-2.9611,-2.9617,-2.9629,-2.9626,-2.9616,-2.962,-2.9594,-2.9619,-2.9577,-2.9612,-2.9581,-2.9588,-2.9583,-2.9586,-2.9586,-2.9539,-2.961,-2.9728,-2.9739,-2.9588,-2.9586,-2.9585,0,-2.9625,-2.9644,-2.9675,-2.9676,-2.9664,-2.968,-2.9675,-2.967,-2.9676,-2.9681,-2.9685,-2.9694,-2.9698,-2.9706,-2.9683,-2.9654,-2.9722,-2.9677,-2.9714,-2.9715,-2.9729,-2.9729,-2.985,-2.9735,-2.9735,-2.9735,-2.9734,0,-2.9714,-2.9745,-2.9712,-2.9732,-2.9767,-2.9737,-2.9773,-2.9764,-2.976,-2.9777,-2.9743,-2.9761,-2.973,-2.9745,-2.9728,-2.976,-2.9762,-2.9755,-2.975,-2.9758,-2.9759,-2.9761,-2.9755,-2.9738,-2.9737,-2.9736,-2.9736,0,-2.9812,-2.9791,-2.9823,-2.9809,-2.9806,-2.9832,-2.9821,-2.9839,-2.9825,-2.9848,-2.9852,-2.9831,-2.9846,-2.9825,-2.9838,-2.9827,-2.9871,-2.9858,-2.9872,-2.9868,-2.9906,-2.9903,-3.0033,-3.0049,-2.9924,-2.9925,-2.9926,0,-2.9869,-2.9893,-2.9882,-2.9891,-2.9889,-2.9904,-2.9911,-2.9884,-2.9892,-2.9891,-2.9909,-2.9922,-2.9931,-2.9958,-2.9944,-2.9954,-2.9941,-2.9986,-2.9943,-2.995,-2.9942,-2.9941,-2.9943,-2.9995,-2.9997,-2.9998,-2.9999,0,-2.9974,-2.9963,-2.9974,-2.9982,-2.9991,-2.9995,-2.9998,-3.0008,-2.9979,-2.9991,-3.0006,-3.0013,-3.0027,-3.004,-3.0047,-3.0043,-3.0017,-3.0013,-3.0022,-3.003,-3.0037,-3.0034,-2.9896,-3.001,-3.0009,-3.0008,-3.0007,-3.0007,-3.0054,-3.0073,-3.0068,-3.0082,-3.0081,-3.0084,-3.01,-3.0089,-3.0102,-3.0111,-3.0094,-3.0114,-3.0111,-3.0118,-3.0117,-3.0133,-3.0113,-3.0127,-3.013,-3.0134,-3.0139,-3.0035,-3.0134,-3.0134,-3.0133,-3.0133,-3.0133,0,-3.0157,-3.0153,-3.0165,-3.017,-3.0181,-3.0155,-3.0156,-3.0167,-3.0185,-3.0185,-3.0194,-3.0213,-3.0226,-3.0213,-3.0224,-3.0239,-3.0227,-3.0243,-3.0241,-3.0241,-3.0156,-3.0147,-3.0252,-3.0252,-3.0252,-3.0252,-3.0252,-3.0252,-3.0212,-3.0243,-3.0232,-3.0263,-3.0258,-3.0277,-3.028,-3.0283,-3.0283,-3.0305,-3.0316,-3.0308,-3.0303,-3.0313,-3.0324,-3.032,-3.0326,-3.0346,-3.0338,-3.0259,-3.0247,-3.0236,-3.0227,-3.0347,-3.0348,-3.0421,-3.0422,-3.0423]},{"header":{"parameterUnit":"m.s-1","parameterCategory":1,"la1":30.2991,"la2":30.254,"lo1":-89.0895,"lo2":-89.0444,"dy":0.0017,"dx":0.0017,"nx":28,"ny":28,"refTime":"2025-06-02T03:00:00:Z","depth":0,"parameterNumber":3,"parameterNumberName":"V-component_of_WINDS"},"data":[0,0,0,0,0,0,0,0,0,0,0,0,0,0,0,0,0,0,0,0,0,0,0,0,0,0,0,0,0,0,0,0,0,0,0,0,0,0,0,0,0,0,0,0,0,0,0,0,0,0,0,0,0,0,0,0,0,0,2.2652,2.2651,0,2.2551,2.2549,2.2548,2.2463,2.2463,2.2462,2.2461,2.2352,2.235,2.2348,0,0,0,0,0,0,0,0,0,0,0,0,0,2.277,2.2768,2.2652,2.2651,2.2649,2.2551,2.2549,2.2548,2.2464,2.2462,2.2461,2.246,2.2352,2.235,2.2347,0,0,0,0,0,0,0,0,0,0,0,0,0,2.2699,2.2768,2.2652,2.2596,2.259,2.2551,2.2549,2.2548,2.2464,2.2462,2.2461,2.246,2.2353,2.235,2.2347,2.2355,0,0,2.2338,2.2336,0,0,0,0,0,0,0,0,2.2703,2.2694,2.2605,2.2599,2.2593,2.2518,2.2551,2.2483,2.2464,2.2511,2.2461,2.2459,2.2408,2.24,2.2384,2.235,2.2345,2.2337,2.2335,2.2334,2.2333,0,0,0,0,0,0,0,2.2708,2.2698,2.2612,2.2604,2.2596,2.2574,2.2563,2.2538,2.2468,2.2507,2.2501,2.249,2.2404,2.2387,2.2381,2.2343,2.2337,2.2335,2.2333,2.2332,2.2313,2.2314,0,0,0,0,0,0,2.2722,2.2703,2.2615,2.2609,2.2646,2.2574,2.256,2.2543,2.2468,2.2456,2.2492,2.2487,2.2393,2.2384,2.2377,2.2381,2.2334,2.2331,2.2329,2.2312,2.2313,2.2315,0,0,0,0,0,0,2.2725,2.2715,2.2619,2.2654,2.264,2.2573,2.2554,2.2542,2.2525,2.2457,2.2443,2.2487,2.2392,2.2381,2.2362,2.2376,2.233,2.2327,2.231,2.2312,2.2314,2.2391,0,0,0,0,0,0,2.2729,2.2717,2.2719,2.2655,2.2639,2.2607,2.2555,2.2541,2.2521,2.2513,2.2449,2.2437,2.239,2.2367,2.2359,2.2371,2.2325,2.2308,2.2311,2.2313,2.2387,2.2395,2.2403,0,0,0,0,0,2.2733,2.2743,2.2719,2.2709,2.2641,2.2608,2.2598,2.2545,2.2522,2.2524,2.2481,2.2439,2.2377,2.2366,2.2356,2.2367,2.2307,2.231,2.2313,2.2383,2.2394,2.2402,0,0,0,0,0,0,2.2807,2.2733,2.2706,2.2696,2.2659,2.2593,2.2593,2.2558,2.2525,2.2519,2.2454,2.244,2.2429,2.2396,2.2385,2.2372,2.2337,2.2338,2.2393,2.2403,2.2411,2.2417,2.2322,0,0,0,0,0,2.2823,2.2804,2.274,2.2736,2.272,2.2661,2.2644,2.2607,2.2566,2.2549,2.2504,2.2464,2.2435,2.2418,2.2388,2.2383,2.2368,2.2387,2.2395,2.2402,2.2402,2.2399,2.2406,2.2325,2.2325,2.2325,0,0,2.2854,2.2811,2.2802,2.2751,2.2717,2.2698,2.2647,2.2628,2.2613,2.2545,2.2524,2.2491,2.2442,2.2431,2.2424,2.2404,2.2423,2.2406,2.2412,2.2408,2.2403,2.2411,2.2418,2.2327,2.2327,2.2326,0,0,2.29,2.2866,2.286,2.283,2.2782,2.2743,2.2743,2.2683,2.2659,2.2638,2.2588,2.2569,2.2521,2.2489,2.2466,2.2507,2.2467,2.2499,2.2539,2.2537,2.2543,2.2548,2.2562,2.2568,2.2501,2.2501,2.2501,0,2.2943,2.2913,2.2861,2.2847,2.2826,2.2768,2.2761,2.2733,2.2678,2.2664,2.2644,2.2585,2.2548,2.2529,2.254,2.2524,2.252,2.2504,2.2547,2.2551,2.2556,2.2568,2.2573,2.2505,2.2505,2.2504,2.2504,0,2.2969,2.295,2.2951,2.2902,2.2881,2.2871,2.2817,2.2803,2.277,2.2733,2.2714,2.2669,2.2629,2.2623,2.2589,2.26,2.2589,2.2559,2.2521,2.2568,2.2579,2.2583,2.2511,2.2509,2.2508,2.2507,0,0,2.3054,2.298,2.2981,2.2959,2.2905,2.2888,2.2876,2.2841,2.2829,2.2794,2.2782,2.2746,2.2719,2.2694,2.2656,2.2654,2.2689,2.2624,2.2622,2.2637,2.2699,2.2721,2.2727,2.2665,2.2666,2.2666,2.2703,0,2.309,2.3066,2.3021,2.3011,2.2993,2.294,2.2929,2.2895,2.2862,2.2841,2.2804,2.278,2.2746,2.2731,2.2727,2.2686,2.2701,2.2683,2.2651,2.2651,2.2662,2.2732,2.2754,2.279,2.2707,2.2707,2.2708,0,2.3127,2.3098,2.3087,2.3037,2.3028,2.3019,2.2984,2.2966,2.2926,2.2902,2.2878,2.2838,2.2822,2.2791,2.2769,2.2758,2.2743,2.2722,2.2722,2.2715,2.268,2.2725,2.2801,2.2806,2.2714,2.2713,2.2713,0,2.3189,2.3147,2.3136,2.3119,2.306,2.3056,2.3031,2.299,2.2973,2.2943,2.2931,2.2899,2.288,2.2857,2.281,2.2791,2.2793,2.2757,2.2772,2.2773,2.2771,2.2771,2.2844,2.2766,2.2766,2.2766,2.2766,0,2.3232,2.3227,2.3163,2.3156,2.3149,2.3099,2.3094,2.3064,2.303,2.3015,2.2968,2.2955,2.2896,2.2876,2.284,2.2827,2.2819,2.2799,2.2789,2.2802,2.2804,2.2789,2.2784,2.2767,2.2767,2.2767,2.2767,0,2.3297,2.3255,2.3239,2.3187,2.3174,2.3171,2.3126,2.3117,2.3084,2.3066,2.3059,2.3006,2.2981,2.2934,2.2895,2.287,2.2865,2.2849,2.2879,2.2872,2.2889,2.2887,2.2951,2.2957,2.2879,2.2879,2.288,0,2.3326,2.3322,2.3271,2.3259,2.3237,2.3218,2.3201,2.3153,2.3137,2.3095,2.3091,2.3063,2.3038,2.3001,2.2958,2.2929,2.291,2.2935,2.2905,2.2919,2.2909,2.2909,2.2908,2.294,2.2941,2.2942,2.2943,0,2.3382,2.3363,2.3341,2.3313,2.3295,2.327,2.3242,2.3235,2.3181,2.3166,2.3141,2.3122,2.3085,2.3057,2.3023,2.2996,2.296,2.2954,2.2955,2.2967,2.2984,2.2974,2.2895,2.2951,2.2951,2.295,2.2949,2.2949,2.3429,2.3423,2.3388,2.3365,2.3341,2.3317,2.3307,2.3275,2.3254,2.3221,2.3194,2.3172,2.3135,2.3086,2.3062,2.3044,2.3026,2.3029,2.3029,2.303,2.3035,2.299,2.3037,2.3037,2.3037,2.3037,2.3036,0,2.3481,2.3457,2.3438,2.3402,2.3386,2.3358,2.3327,2.3314,2.3296,2.3266,2.3244,2.3217,2.3192,2.3149,2.312,2.3114,2.3097,2.3108,2.3106,2.3101,2.3052,2.3053,2.3122,2.3122,2.3122,2.3122,2.3122,2.3122,2.3506,2.3495,2.3473,2.345,2.3425,2.3405,2.339,2.3368,2.3344,2.3317,2.3296,2.327,2.3235,2.3204,2.318,2.3168,2.3159,2.3175,2.3158,2.3112,2.3104,2.3096,2.3097,2.3174,2.3174,2.3208,2.3208,2.3208]}]]